Location: Izdebno
(52.6670°N, 16.2170°E)
Time: 07:04:57
(UTC+02:00)

Vanguard 1 - Pass Details

Date: 25 February 2024
Orbit: 653 x 3825 km, 34.2° (Epoch: 22 April)

Event Time Altitude Azimuth Distance (km) Brightness Sun altitude
Rises 20:24:31 0° 234° (SW) 5,667 14.4 -27.4°
Reaches altitude 10° 20:27:59 10° 227° (SW) 5,039 13.9 -27.9°
Maximum altitude 20:42:18 41° 164° (SSE) 4,228 12.8 -29.9°
Enters shadow 20:46:45 38° 141° (SE) 4,604 12.9 -30.5°
